Location: Rumah Geringgi
(3.1667°N, 113.1667°E)
Time: 19:40:52
(UTC+00:00)

Palapa 6 Rocket - Pass Details

Date: 03 August 2024
Orbit: 482 x 1182 km, 22.7° (Epoch: 19 September)

Event Time Altitude Azimuth Distance (km) Brightness Sun altitude
Rises 12:24:06 0° 291° (WNW) 2,601 7.7 -25.2°
Reaches altitude 10° 12:26:23 10° 289° (WNW) 1,673 6.3 -25.7°
Enters shadow 12:28:52 38° 278° (W) 739 3.9 -26.3°
